QPF
0.00 0.00 0.00 0.02 0.01 0.00 0.00 0.00 0.00 0.00 0.00 0.00 0.00 0.00 0.00 0.00 0.00 0.00 0.00 0.00 0.00 0.00 0.02 0.11 0.06 0.02 0.00 0.00 0.00 0.00 0.00 0.00 0.03 0.06 0.04 0.02 0.03 0.04 0.05 0.01 0.00 0.00 0.00 0.00 0.00 0.00 0.00 0.00 0.00
0.01 0.02 0.00 0.02 0.00 0.00 0.00 0.00 0.00 0.00 0.00 0.00 0.00 0.00 0.00 0.00 0.00 0.00 0.00 0.00 0.00 0.00 0.01 0.10 0.07 0.03 0.00 0.00 0.00 0.00 0.00 0.01 0.01 0.02 0.01 0.02 0.06 0.07 0.08 0.04 0.00 0.00 0.01 0.00 0.00 0.00 0.00 0.00 0.00
0.02 0.00 0.00 0.00 0.00 0.00 0.00 0.00 0.00 0.00 0.00 0.00 0.00 0.00 0.01 0.00 0.00 0.00 0.00 0.00 0.00 0.00 0.00 0.03 0.02 0.00 0.00 0.00 0.00 0.00 0.02 0.06 0.07 0.05 0.02 0.04 0.13 0.19 0.12 0.04 0.02 0.00 0.00 0.00 0.00 0.00 0.00 0.00 0.00
0.04 0.00 0.00 0.00 0.00 0.00 0.00 0.00 0.00 0.00 0.00 0.00 0.00 0.00 0.00 0.00 0.00 0.00 0.00 0.00 0.00 0.00 0.00 0.01 0.00 0.00 0.00 0.00 0.00 0.01 0.00 0.02 0.03 0.02 0.03 0.04 0.07 0.06 0.02 0.01 0.00 0.00 0.00 0.00 0.00 0.00 0.00 0.00 0.00
0.00 0.00 0.00 0.00 0.01 0.00 0.00 0.00 0.00 0.00 0.00 0.00 0.00 0.00 0.00 0.00 0.00 0.00 0.00 0.00 0.00 0.00 0.00 0.00 0.00 0.00 0.00 0.00 0.00 0.01 0.00 0.04 0.02 0.00 0.00 0.00 0.00 0.00 0.00 0.00 0.00 0.00 0.00 0.00 0.00 0.00 0.00 0.00 0.00
0.00 0.00 0.00 0.01 0.00 0.00 0.00 0.00 0.00 0.00 0.00 0.00 0.00 0.00 0.00 0.00 0.00 0.00 0.00 0.00 0.00 0.01 0.00 0.00 0.00 0.01 0.01 0.02 0.00 0.00 0.01 0.01 0.00 0.00 0.00 0.00 0.00 0.00 0.00 0.00 0.00 0.00 0.00 0.00 0.00 0.00 0.00 0.00 0.00
0.00 0.00 0.01 0.03 0.01 0.00 0.00 0.00 0.00 0.00 0.00 0.00 0.00 0.00 0.00 0.00 0.00 0.00 0.00 0.00 0.00 0.04 0.00 0.00 0.01 0.02 0.03 0.03 0.01 0.00 0.00 0.00 0.00 0.00 0.00 0.00 0.00 0.00 0.00 0.00 0.00 0.00 0.00 0.00 0.00 0.00 0.00 0.00 0.00
0.00 0.01 0.05 0.07 0.02 0.01 0.00 0.00 0.00 0.00 0.00 0.00 0.00 0.00 0.00 0.00 0.00 0.00 0.00 0.00 0.00 0.00 0.00 0.00 0.00 0.00 0.02 0.02 0.05 0.05 0.01 0.00 0.00 0.00 0.00 0.00 0.00 0.00 0.00 0.00 0.00 0.00 0.00 0.00 0.00 0.00 0.00 0.00 0.00
0.00 0.00 0.06 0.02 0.02 0.02 0.00 0.00 0.00 0.00 0.00 0.00 0.00 0.00 0.00 0.00 0.00 0.00 0.00 0.00 0.01 0.00 0.00 0.00 0.00 0.00 0.00 0.00 0.03 0.08 0.05 0.01 0.00 0.00 0.00 0.00 0.00 0.00 0.00 0.00 0.00 0.00 0.00 0.00 0.00 0.00 0.00 0.00 0.00
0.00 0.00 0.00 0.00 0.00 0.00 0.00 0.00 0.00 0.00 0.00 0.00 0.00 0.00 0.00 0.00 0.00 0.00 0.00 0.00 0.00 0.00 0.00 0.00 0.00 0.00 0.00 0.00 0.01 0.00 0.00 0.00 0.00 0.00 0.00 0.00 0.00 0.00 0.00 0.00 0.00 0.00 0.00 0.00 0.00 0.00 0.00 0.00 0.00
0.00 0.00 0.00 0.00 0.00 0.00 0.00 0.00 0.00 0.00 0.00 0.00 0.00 0.00 0.00 0.00 0.00 0.00 0.00 0.00 0.00 0.00 0.00 0.00 0.00 0.00 0.01 0.00 0.00 0.00 0.00 0.00 0.00 0.00 0.00 0.00 0.00 0.00 0.00 0.00 0.00 0.00 0.00 0.00 0.00 0.00 0.00 0.00 0.00
0.00 0.00 0.00 0.00 0.00 0.00 0.00 0.00 0.00 0.00 0.00 0.00 0.00 0.00 0.00 0.00 0.00 0.00 0.00 0.00 0.00 0.00 0.00 0.00 0.00 0.00 0.01 0.00 0.00 0.00 0.00 0.00 0.00 0.00 0.00 0.00 0.00 0.00 0.00 0.00 0.00 0.00 0.00 0.00 0.00 0.00 0.00 0.00 0.00
0.00 0.00 0.00 0.00 0.00 0.02 0.05 0.00 0.00 0.00 0.00 0.00 0.00 0.00 0.00 0.00 0.00 0.00 0.00 0.00 0.00 0.00 0.00 0.00 0.00 0.00 0.00 0.00 0.00 0.00 0.00 0.00 0.00 0.00 0.00 0.00 0.00 0.00 0.00 0.00 0.00 0.00 0.00 0.00 0.00 0.00 0.00 0.00 0.00
0.00 0.00 0.02 0.00 0.00 0.05 0.03 0.01 0.00 0.00 0.00 0.00 0.00 0.00 0.00 0.00 0.00 0.00 0.00 0.00 0.00 0.00 0.00 0.00 0.00 0.00 0.00 0.00 0.00 0.00 0.00 0.00 0.00 0.00 0.00 0.00 0.00 0.00 0.00 0.00 0.00 0.00 0.00 0.00 0.00 0.00 0.00 0.00 0.00
0.00 0.02 0.09 0.02 0.00 0.06 0.01 0.00 0.00 0.00 0.00 0.00 0.00 0.00 0.00 0.00 0.00 0.00 0.00 0.00 0.00 0.00 0.00 0.00 0.00 0.00 0.00 0.00 0.00 0.00 0.00 0.00 0.00 0.00 0.00 0.00 0.00 0.00 0.00 0.00 0.00 0.00 0.00 0.00 0.00 0.00 0.00 0.00 0.00
0.00 0.01 0.04 0.01 0.00 0.03 0.01 0.01 0.00 0.00 0.00 0.00 0.00 0.00 0.00 0.00 0.00 0.00 0.00 0.00 0.00 0.00 0.00 0.00 0.00 0.00 0.00 0.00 0.00 0.00 0.00 0.00 0.00 0.00 0.00 0.00 0.00 0.00 0.00 0.00 0.00 0.00 0.00 0.00 0.00 0.00 0.00 0.00 0.00
0.00 0.00 0.00 0.01 0.00 0.05 0.10 0.05 0.00 0.00 0.00 0.00 0.00 0.00 0.00 0.00 0.00 0.00 0.00 0.00 0.00 0.00 0.00 0.00 0.00 0.00 0.00 0.00 0.00 0.00 0.00 0.00 0.00 0.00 0.00 0.00 0.00 0.00 0.00 0.00 0.00 0.00 0.00 0.00 0.00 0.00 0.00 0.00 0.00
0.00 0.00 0.00 0.00 0.00 0.00 0.01 0.00 0.00 0.00 0.00 0.00 0.00 0.00 0.00 0.00 0.00 0.00 0.00 0.00 0.00 0.00 0.00 0.00 0.00 0.00 0.00 0.00 0.00 0.00 0.00 0.00 0.00 0.00 0.00 0.00 0.00 0.00 0.00 0.00 0.00 0.00 0.00 0.00 0.00 0.00 0.00 0.00 0.00
0.00 0.00 0.00 0.00 0.00 0.00 0.00 0.00 0.00 0.00 0.00 0.00 0.00 0.00 0.00 0.00 0.00 0.00 0.00 0.00 0.00 0.00 0.00 0.00 0.00 0.00 0.00 0.00 0.00 0.00 0.00 0.00 0.00 0.00 0.00 0.00 0.00 0.00 0.00 0.00 0.00 0.00 0.00 0.00 0.00 0.00 0.00 0.00 0.00
0.00 0.00 0.00 0.00 0.00 0.00 0.00 0.00 0.00 0.00 0.00 0.00 0.00 0.00 0.00 0.00 0.00 0.00 0.00 0.00 0.00 0.00 0.00 0.00 0.00 0.00 0.00 0.00 0.00 0.00 0.00 0.00 0.00 0.00 0.00 0.00 0.00 0.00 0.00 0.00 0.00 0.00 0.00 0.00 0.00 0.00 0.00 0.00 0.00
0.00 0.00 0.00 0.00 0.00 0.00 0.00 0.00 0.00 0.00 0.00 0.00 0.00 0.00 0.00 0.00 0.00 0.00 0.00 0.00 0.00 0.00 0.00 0.00 0.00 0.00 0.00 0.00 0.00 0.00 0.00 0.00 0.00 0.00 0.00 0.00 0.00 0.00 0.00 0.00 0.00 0.00 0.00 0.00 0.00 0.00 0.00 0.00 0.00
0.00 0.00 0.00 0.00 0.00 0.00 0.00 0.00 0.00 0.00 0.00 0.00 0.00 0.00 0.00 0.00 0.00 0.00 0.00 0.00 0.00 0.00 0.00 0.00 0.00 0.00 0.00 0.00 0.00 0.00 0.00 0.00 0.00 0.00 0.00 0.00 0.00 0.00 0.00 0.00 0.00 0.00 0.00 0.00 0.00 0.00 0.00 0.00 0.00
0.00 0.00 0.00 0.00 0.00 0.00 0.00 0.00 0.00 0.00 0.00 0.00 0.00 0.00 0.00 0.00 0.00 0.00 0.00 0.00 0.00 0.00 0.00 0.00 0.00 0.00 0.00 0.00 0.00 0.00 0.00 0.00 0.00 0.00 0.00 0.00 0.00 0.00 0.00 0.00 0.00 0.00 0.00 0.00 0.00 0.00 0.00 0.00 0.00
0.00 0.00 0.00 0.00 0.00 0.00 0.00 0.00 0.00 0.00 0.00 0.00 0.00 0.00 0.00 0.00 0.00 0.00 0.00 0.00 0.00 0.00 0.00 0.00 0.00 0.00 0.00 0.00 0.00 0.00 0.00 0.00 0.00 0.00 0.00 0.00 0.00 0.00 0.00 0.00 0.00 0.00 0.00 0.00 0.00 0.00 0.00 0.00 0.00
0.00 0.00 0.00 0.00 0.00 0.00 0.00 0.00 0.00 0.00 0.00 0.00 0.00 0.00 0.00 0.00 0.00 0.00 0.00 0.00 0.00 0.00 0.00 0.00 0.00 0.00 0.00 0.00 0.00 0.00 0.00 0.00 0.00 0.00 0.00 0.00 0.00 0.00 0.00 0.00 0.00 0.00 0.00 0.00 0.00 0.00 0.00 0.00 0.00
0.00 0.00 0.00 0.00 0.00 0.00 0.00 0.00 0.00 0.00 0.00 0.00 0.00 0.00 0.00 0.00 0.00 0.00 0.00 0.00 0.00 0.00 0.00 0.00 0.00 0.00 0.00 0.00 0.00 0.00 0.00 0.00 0.00 0.00 0.00 0.00 0.00 0.00 0.00 0.00 0.00 0.00 0.00 0.00 0.00 0.00 0.00 0.00 0.00
0.00 0.00 0.00 0.00 0.00 0.00 0.00 0.00 0.00 0.00 0.00 0.00 0.00 0.00 0.00 0.00 0.00 0.00 0.00 0.00 0.00 0.00 0.00 0.00 0.00 0.00 0.00 0.00 0.00 0.00 0.00 0.00 0.00 0.00 0.00 0.00 0.00 0.00 0.00 0.00 0.00 0.00 0.00 0.00 0.00 0.00 0.00 0.00 0.00
0.00 0.00 0.00 0.00 0.00 0.00 0.00 0.00 0.00 0.00 0.00 0.00 0.00 0.00 0.00 0.00 0.00 0.00 0.00 0.00 0.00 0.00 0.00 0.00 0.00 0.00 0.00 0.00 0.00 0.00 0.00 0.00 0.00 0.00 0.00 0.00 0.00 0.00 0.00 0.00 0.00 0.00 0.00 0.00 0.00 0.00 0.00 0.00 0.00
0.00 0.00 0.00 0.00 0.00 0.00 0.00 0.00 0.00 0.00 0.00 0.00 0.00 0.00 0.00 0.00 0.00 0.00 0.00 0.00 0.00 0.00 0.00 0.00 0.00 0.00 0.00 0.00 0.00 0.00 0.00 0.00 0.00 0.00 0.00 0.00 0.00 0.00 0.00 0.00 0.00 0.00 0.00 0.00 0.00 0.00 0.00 0.00 0.00
0.00 0.00 0.00 0.00 0.00 0.00 0.00 0.00 0.00 0.00 0.00 0.00 0.00 0.00 0.00 0.00 0.00 0.00 0.00 0.00 0.01 0.00 0.00 0.00 0.00 0.00 0.00 0.00 0.00 0.00 0.00 0.00 0.00 0.00 0.00 0.00 0.00 0.00 0.00 0.00 0.00 0.00 0.00 0.00 0.01 0.00 0.01 0.01 0.00
MSLP
1010.11 1010.36 1010.59 1010.64 1011.15 1010.83 1010.71 1010.15 1009.73 1009.98 1010.28 1010.45 1010.90 1011.59 1012.57 1013.38 1013.87 1014.82 1014.44 1014.47 1014.47 1015.05 1015.26 1015.47 1015.53 1015.57 1015.63 1015.74 1015.76 1015.83 1015.91 1016.03 1016.16 1016.29 1016.46 1016.63 1016.66 1016.72 1016.72 1016.86 1016.92 1017.05 1017.07 1017.23 1017.34 1017.36 1017.43 1017.61 1017.58
1010.11 1010.52 1010.72 1010.55 1010.86 1010.97 1010.68 1009.98 1009.91 1010.13 1010.45 1010.66 1011.28 1011.84 1012.53 1013.59 1013.83 1014.34 1014.60 1014.67 1014.59 1015.09 1015.53 1015.80 1015.79 1015.84 1015.93 1016.01 1016.11 1016.19 1016.20 1016.22 1016.39 1016.58 1016.77 1016.95 1016.82 1017.09 1017.11 1017.12 1017.25 1017.32 1017.43 1017.57 1017.61 1017.67 1017.77 1017.88 1017.93
1010.18 1010.23 1010.66 1010.57 1010.68 1010.63 1010.37 1010.06 1010.17 1010.39 1010.43 1010.75 1011.63 1012.02 1012.79 1013.70 1014.07 1014.53 1014.57 1014.84 1014.97 1015.47 1015.69 1015.99 1015.98 1016.01 1016.15 1016.30 1016.42 1016.51 1016.59 1016.71 1016.82 1016.92 1016.89 1017.08 1017.19 1017.33 1017.29 1017.46 1017.62 1017.72 1017.78 1017.78 1017.86 1017.88 1018.00 1018.06 1018.07
1010.18 1010.47 1010.66 1010.46 1010.36 1009.98 1009.91 1010.02 1010.13 1010.40 1010.76 1010.99 1011.71 1012.62 1013.18 1013.51 1014.09 1014.52 1014.86 1014.86 1015.43 1015.76 1015.99 1016.04 1016.11 1016.22 1016.31 1016.52 1016.66 1016.77 1016.95 1016.96 1016.99 1017.12 1017.40 1017.45 1017.61 1017.76 1017.67 1017.73 1017.96 1018.00 1018.07 1018.09 1018.13 1018.15 1018.23 1018.42 1018.52
1010.17 1010.49 1010.59 1010.42 1010.19 1009.91 1009.80 1010.00 1010.21 1010.55 1010.93 1011.42 1011.68 1013.09 1013.71 1014.28 1014.19 1014.74 1015.15 1015.35 1015.72 1015.98 1016.11 1016.31 1016.43 1016.49 1016.60 1016.77 1016.90 1017.04 1017.17 1017.21 1017.22 1017.33 1017.51 1017.66 1017.79 1018.00 1018.10 1018.16 1018.26 1018.31 1018.43 1018.43 1018.39 1018.45 1018.57 1018.65 1018.72
1010.34 1010.82 1011.03 1011.08 1010.61 1010.30 1010.23 1010.21 1010.49 1010.85 1011.23 1011.82 1012.36 1013.20 1014.49 1014.71 1014.74 1015.26 1015.45 1015.77 1015.95 1016.28 1016.39 1016.50 1016.59 1016.76 1016.90 1017.01 1017.11 1017.22 1017.33 1017.51 1017.51 1017.61 1017.79 1017.94 1018.03 1018.18 1018.36 1018.53 1018.59 1018.64 1018.70 1018.74 1018.68 1018.74 1018.80 1018.83 1018.80
1010.84 1011.22 1011.80 1011.44 1011.03 1010.61 1010.49 1010.54 1010.91 1011.27 1011.47 1012.01 1012.36 1013.64 1014.78 1015.17 1015.27 1015.60 1015.97 1016.24 1016.27 1016.48 1016.62 1016.84 1016.94 1016.99 1017.15 1017.23 1017.31 1017.43 1017.62 1017.77 1017.90 1017.99 1018.13 1018.19 1018.31 1018.53 1018.67 1018.80 1018.86 1018.92 1019.06 1019.03 1018.99 1019.06 1019.09 1019.09 1019.07
1011.09 1011.38 1011.99 1011.79 1011.32 1010.86 1010.55 1010.52 1011.06 1011.52 1011.76 1011.96 1012.33 1013.59 1014.57 1015.06 1015.40 1015.91 1016.43 1016.74 1016.85 1016.85 1016.86 1017.06 1017.21 1017.28 1017.51 1017.56 1017.66 1017.70 1017.83 1018.04 1018.17 1018.32 1018.41 1018.51 1018.67 1018.85 1018.98 1019.15 1019.19 1019.36 1019.38 1019.31 1019.37 1019.36 1019.39 1019.32 1019.36
1010.86 1011.52 1012.10 1011.76 1011.43 1011.26 1010.64 1010.72 1011.11 1011.24 1011.93 1012.11 1012.54 1013.18 1013.85 1014.95 1015.57 1016.33 1016.86 1017.18 1017.26 1017.34 1017.38 1017.35 1017.46 1017.57 1017.71 1017.79 1017.97 1018.15 1018.18 1018.21 1018.36 1018.49 1018.62 1018.81 1019.16 1019.25 1019.39 1019.47 1019.50 1019.59 1019.63 1019.60 1019.57 1019.52 1019.49 1019.54 1019.61
1010.95 1011.59 1011.61 1011.59 1011.54 1011.57 1011.18 1010.97 1011.23 1011.66 1012.09 1012.70 1013.30 1013.77 1014.41 1015.06 1015.68 1016.35 1016.79 1017.04 1017.38 1017.54 1017.54 1017.48 1017.52 1017.78 1017.91 1017.96 1018.18 1018.38 1018.44 1018.62 1018.73 1018.86 1019.02 1019.25 1019.47 1019.60 1019.71 1019.79 1019.74 1019.78 1019.88 1019.86 1019.79 1019.71 1019.73 1019.78 1019.90
1011.29 1011.32 1011.31 1011.62 1011.40 1011.43 1011.23 1011.08 1011.14 1011.80 1012.30 1012.55 1013.07 1014.01 1014.65 1015.34 1015.86 1016.32 1016.78 1016.98 1017.27 1017.55 1017.64 1017.64 1017.59 1017.90 1018.15 1018.26 1018.43 1018.63 1018.75 1018.97 1019.14 1019.25 1019.41 1019.59 1019.66 1019.86 1019.91 1020.11 1020.17 1020.16 1020.25 1020.25 1020.14 1020.13 1020.06 1019.97 1019.96
1011.06 1011.39 1011.46 1011.67 1011.60 1011.45 1011.30 1011.39 1011.35 1011.67 1011.68 1012.12 1013.00 1013.76 1014.61 1015.26 1015.76 1016.03 1016.60 1017.00 1017.27 1017.59 1017.73 1017.79 1017.70 1017.95 1018.27 1018.43 1018.58 1018.70 1019.01 1019.18 1019.38 1019.48 1019.66 1019.76 1019.93 1020.07 1020.17 1020.32 1020.41 1020.46 1020.51 1020.50 1020.59 1020.46 1020.26 1020.10 1019.93
1010.70 1011.32 1011.46 1011.35 1011.29 1011.31 1011.31 1011.26 1011.28 1011.38 1011.69 1012.48 1013.33 1013.89 1014.47 1015.02 1015.45 1015.85 1016.23 1016.71 1017.11 1017.43 1017.72 1017.82 1017.77 1017.99 1018.29 1018.55 1018.83 1018.96 1019.06 1019.28 1019.36 1019.59 1019.84 1019.97 1020.07 1020.09 1020.26 1020.38 1020.49 1020.58 1020.75 1020.84 1020.86 1020.73 1020.50 1020.20 1019.87
1010.33 1011.23 1011.27 1011.08 1010.95 1011.24 1010.92 1010.73 1010.87 1011.12 1011.85 1012.80 1013.44 1014.02 1014.29 1014.74 1015.05 1015.70 1016.22 1016.54 1016.81 1017.17 1017.44 1017.72 1018.03 1018.11 1018.33 1018.54 1018.85 1019.07 1019.18 1019.29 1019.49 1019.67 1019.82 1020.00 1020.04 1020.22 1020.41 1020.47 1020.49 1020.69 1020.72 1020.74 1020.55 1020.34 1020.09 1019.90 1019.68
1010.30 1010.97 1011.43 1011.52 1011.40 1011.24 1011.05 1010.75 1010.53 1011.07 1011.76 1012.77 1013.62 1013.92 1014.38 1014.66 1015.06 1015.14 1015.48 1016.02 1016.34 1016.67 1017.15 1017.54 1017.84 1018.06 1018.29 1018.40 1018.71 1019.00 1019.21 1019.26 1019.46 1019.62 1019.81 1019.88 1020.06 1020.22 1020.41 1020.52 1020.61 1020.69 1020.61 1020.45 1020.23 1020.03 1019.97 1019.94 1019.72
1010.37 1010.95 1011.49 1011.36 1011.52 1011.49 1011.72 1010.72 1010.52 1011.15 1011.65 1012.62 1013.39 1013.70 1013.99 1014.43 1014.58 1014.81 1015.11 1015.48 1015.99 1016.53 1016.81 1017.17 1017.67 1018.04 1018.23 1018.41 1018.57 1018.83 1019.08 1019.26 1019.35 1019.52 1019.73 1019.92 1020.02 1020.18 1020.38 1020.53 1020.66 1020.62 1020.53 1020.44 1020.27 1020.16 1020.09 1020.00 1019.83
1010.71 1011.22 1011.64 1011.49 1011.72 1011.56 1011.63 1010.90 1010.56 1010.90 1011.50 1012.38 1013.01 1013.37 1013.57 1013.95 1014.34 1014.55 1014.72 1015.11 1015.45 1015.88 1016.49 1016.93 1017.23 1017.66 1018.07 1018.33 1018.63 1018.79 1018.87 1019.12 1019.26 1019.36 1019.64 1019.85 1019.92 1020.03 1020.24 1020.46 1020.58 1020.53 1020.53 1020.45 1020.35 1020.30 1020.34 1020.18 1019.95
1010.99 1011.20 1011.34 1011.18 1011.18 1011.64 1011.40 1010.96 1010.94 1010.92 1011.16 1011.81 1012.42 1012.89 1013.22 1013.34 1013.60 1013.91 1014.24 1014.66 1015.16 1015.56 1015.99 1016.51 1017.00 1017.26 1017.76 1018.11 1018.63 1018.86 1018.99 1019.02 1019.10 1019.24 1019.41 1019.63 1019.82 1019.96 1020.17 1020.28 1020.39 1020.40 1020.38 1020.43 1020.44 1020.56 1020.39 1020.28 1020.13
1010.67 1010.89 1011.13 1010.66 1010.29 1010.84 1010.74 1010.40 1010.45 1010.93 1011.37 1011.59 1011.80 1012.21 1012.53 1012.63 1012.74 1013.35 1013.71 1014.21 1014.76 1015.42 1015.93 1016.32 1016.79 1017.14 1017.62 1018.16 1018.62 1018.93 1019.00 1019.03 1019.15 1019.13 1019.20 1019.44 1019.64 1019.74 1019.95 1020.06 1020.21 1020.24 1020.40 1020.40 1020.58 1020.65 1020.51 1020.38 1020.27
1010.40 1010.43 1010.64 1010.32 1010.03 1010.43 1009.97 1009.97 1010.06 1010.27 1010.08 1010.36 1010.66 1011.15 1011.57 1012.14 1012.36 1012.83 1013.34 1013.90 1014.30 1014.82 1015.32 1015.96 1016.29 1016.74 1017.22 1017.60 1017.87 1018.02 1018.29 1018.58 1018.56 1018.77 1019.02 1019.20 1019.46 1019.64 1019.86 1020.05 1020.10 1020.05 1020.32 1020.42 1020.64 1020.67 1020.64 1020.66 1020.57
1010.74 1010.71 1010.81 1010.83 1010.14 1009.66 1009.91 1010.07 1010.03 1009.86 1010.03 1010.41 1010.52 1010.56 1010.81 1011.18 1011.65 1012.21 1012.80 1013.31 1013.80 1014.38 1014.94 1015.42 1015.79 1016.21 1016.71 1017.11 1017.57 1017.78 1018.21 1018.44 1018.74 1018.91 1019.03 1019.00 1019.18 1019.50 1019.72 1019.85 1019.91 1019.99 1020.07 1020.33 1020.47 1020.58 1020.76 1020.87 1020.79
1011.01 1010.65 1010.85 1010.94 1011.17 1010.99 1010.55 1011.02 1010.19 1009.80 1009.61 1009.71 1009.64 1009.82 1010.01 1010.42 1010.88 1011.40 1011.91 1012.63 1013.16 1013.53 1014.15 1014.82 1015.40 1015.87 1016.33 1016.75 1017.24 1017.44 1017.84 1018.37 1018.42 1018.51 1018.69 1018.78 1018.90 1019.15 1019.32 1019.46 1019.54 1019.67 1019.93 1020.11 1020.29 1020.39 1020.61 1020.81 1020.95
1011.43 1011.06 1011.15 1011.21 1011.59 1011.77 1011.28 1011.40 1009.96 1009.58 1009.80 1009.08 1008.55 1008.58 1008.80 1009.04 1009.64 1010.22 1010.75 1011.32 1011.97 1012.78 1013.48 1014.20 1014.93 1015.51 1015.95 1016.40 1016.70 1017.09 1017.58 1017.71 1017.91 1018.22 1018.55 1018.74 1018.78 1018.90 1019.03 1019.23 1019.34 1019.53 1019.79 1019.86 1020.12 1020.24 1020.53 1020.75 1020.91
1011.68 1011.63 1011.92 1012.22 1012.60 1012.45 1011.60 1011.40 1010.12 1009.48 1008.10 1007.69 1007.48 1007.35 1007.24 1007.59 1008.14 1008.92 1009.47 1010.35 1011.10 1012.09 1012.92 1013.63 1014.34 1014.97 1015.46 1015.94 1016.26 1016.52 1017.02 1017.44 1017.78 1018.09 1018.39 1018.55 1018.72 1018.82 1018.91 1019.02 1019.24 1019.37 1019.53 1019.72 1019.86 1020.06 1020.36 1020.56 1020.71
1012.56 1013.17 1013.64 1013.99 1013.99 1013.20 1012.07 1011.44 1009.54 1007.70 1007.20 1006.88 1006.38 1006.22 1006.07 1006.46 1007.41 1007.90 1008.82 1009.59 1010.42 1011.31 1012.11 1012.94 1013.71 1014.37 1014.85 1015.41 1015.79 1016.03 1016.37 1016.80 1017.23 1017.52 1017.85 1018.22 1018.40 1018.62 1018.70 1018.77 1019.06 1019.21 1019.22 1019.37 1019.54 1019.75 1019.96 1020.23 1020.53
1013.91 1014.35 1015.10 1015.34 1015.41 1014.27 1012.62 1010.79 1008.37 1006.97 1006.15 1005.68 1005.38 1004.97 1005.05 1005.63 1005.93 1006.56 1007.30 1008.14 1009.01 1009.93 1011.03 1011.99 1012.87 1013.61 1014.14 1014.59 1015.06 1015.44 1015.79 1016.21 1016.58 1016.97 1017.29 1017.54 1017.76 1017.90 1017.94 1018.29 1018.65 1018.85 1018.99 1019.17 1019.49 1019.76 1019.95 1020.15 1020.40
1014.48 1015.06 1015.52 1015.93 1016.12 1015.45 1013.24 1010.67 1008.57 1006.83 1006.10 1005.46 1004.81 1004.57 1004.24 1004.26 1004.61 1004.99 1005.86 1006.72 1007.76 1008.72 1009.74 1010.83 1011.79 1012.63 1013.27 1013.68 1014.25 1014.81 1015.22 1015.64 1015.99 1016.32 1016.71 1016.99 1017.04 1017.21 1017.53 1017.91 1018.41 1018.52 1018.76 1018.98 1019.22 1019.49 1019.62 1019.81 1020.03
1015.21 1015.49 1016.12 1016.98 1017.42 1016.66 1014.18 1011.86 1009.75 1008.01 1007.17 1006.51 1005.46 1004.72 1004.00 1003.53 1003.53 1004.14 1004.80 1005.73 1006.54 1007.53 1008.59 1009.73 1010.55 1011.30 1011.90 1012.78 1013.44 1013.96 1014.47 1014.96 1015.37 1015.84 1016.25 1016.49 1016.70 1016.95 1017.22 1017.57 1017.90 1018.21 1018.34 1018.60 1018.96 1019.21 1019.34 1019.68 1019.66
1016.21 1016.22 1016.93 1017.73 1018.02 1017.57 1015.90 1013.06 1009.96 1009.27 1008.69 1007.76 1006.47 1005.30 1004.04 1002.95 1002.78 1003.15 1003.81 1004.77 1005.60 1006.59 1007.78 1008.72 1009.78 1010.56 1011.38 1012.02 1012.64 1013.22 1013.74 1014.19 1014.72 1015.11 1015.56 1015.96 1016.18 1016.43 1016.87 1017.12 1017.34 1017.68 1018.01 1018.29 1018.65 1018.82 1018.90 1019.20 1019.27
1016.71 1017.07 1017.74 1018.72 1018.70 1018.15 1016.68 1012.79 1010.11 1009.70 1009.06 1008.61 1007.38 1006.21 1004.80 1002.96 1002.52 1003.12 1003.67 1004.70 1005.72 1006.34 1007.36 1007.97 1008.84 1009.73 1010.28 1010.92 1011.80 1012.43 1013.05 1013.60 1014.13 1014.52 1014.84 1015.23 1015.59 1015.87 1016.20 1016.57 1016.87 1017.12 1017.40 1017.58 1017.87 1018.21 1018.46 1018.71 1018.84
Thickness
5799 5795 5794 5785 5755 5747 5740 5753 5768 5755 5754 5764 5765 5754 5743 5739 5736 5721 5751 5753 5754 5749 5748 5746 5746 5747 5748 5750 5751 5753 5753 5753 5755 5755 5754 5754 5754 5755 5756 5760 5761 5761 5762 5761 5760 5761 5761 5762 5762
5801 5797 5791 5780 5747 5736 5738 5764 5758 5760 5762 5767 5763 5757 5747 5734 5748 5746 5747 5754 5756 5752 5749 5747 5748 5748 5748 5749 5750 5751 5752 5752 5753 5752 5752 5751 5755 5754 5757 5761 5762 5761 5762 5762 5762 5762 5763 5763 5762
5803 5803 5781 5769 5751 5743 5741 5762 5761 5765 5771 5768 5758 5763 5752 5740 5748 5748 5755 5754 5755 5753 5751 5749 5750 5750 5750 5750 5751 5751 5752 5752 5753 5753 5754 5753 5753 5754 5759 5762 5762 5762 5762 5765 5764 5765 5766 5765 5765
5798 5793 5787 5765 5760 5768 5765 5764 5770 5768 5770 5773 5766 5749 5756 5760 5752 5755 5755 5754 5753 5752 5751 5751 5751 5751 5752 5752 5753 5753 5751 5752 5754 5756 5754 5755 5755 5755 5760 5762 5762 5763 5764 5765 5767 5768 5767 5765 5764
5799 5787 5770 5770 5769 5774 5776 5775 5776 5766 5766 5767 5769 5748 5748 5754 5761 5759 5756 5756 5753 5753 5752 5752 5751 5752 5752 5753 5753 5754 5751 5755 5756 5758 5757 5757 5759 5759 5760 5761 5762 5763 5764 5767 5769 5768 5767 5766 5764
5783 5783 5761 5752 5766 5773 5775 5779 5777 5768 5768 5766 5762 5752 5745 5758 5759 5756 5758 5756 5755 5754 5752 5752 5753 5753 5753 5752 5753 5755 5756 5756 5757 5759 5760 5761 5761 5761 5761 5761 5762 5764 5767 5768 5768 5768 5767 5766 5766
5777 5771 5758 5761 5766 5767 5773 5783 5770 5766 5765 5763 5771 5748 5748 5752 5760 5758 5756 5756 5755 5755 5754 5753 5753 5753 5753 5753 5755 5756 5756 5756 5757 5759 5761 5762 5762 5761 5763 5763 5765 5767 5768 5768 5768 5768 5768 5767 5767
5784 5778 5759 5763 5763 5765 5781 5784 5779 5770 5765 5780 5777 5749 5746 5754 5761 5758 5755 5753 5754 5755 5755 5755 5754 5754 5753 5754 5755 5757 5757 5757 5757 5758 5760 5761 5762 5763 5764 5765 5766 5766 5767 5768 5767 5767 5768 5768 5768
5795 5765 5752 5765 5768 5768 5789 5780 5784 5786 5771 5778 5778 5770 5768 5762 5760 5754 5751 5750 5751 5753 5754 5754 5754 5754 5754 5754 5755 5755 5757 5758 5759 5760 5761 5762 5763 5764 5765 5765 5767 5767 5767 5767 5767 5769 5770 5769 5770
5786 5765 5767 5779 5778 5771 5780 5783 5779 5773 5768 5767 5767 5771 5769 5764 5759 5752 5750 5749 5750 5750 5753 5755 5755 5754 5754 5754 5756 5757 5758 5759 5761 5762 5763 5763 5764 5766 5766 5767 5768 5767 5767 5768 5769 5771 5771 5772 5772
5780 5769 5783 5781 5787 5786 5783 5782 5789 5773 5762 5770 5769 5765 5766 5763 5759 5755 5752 5753 5752 5752 5753 5755 5756 5754 5754 5755 5756 5758 5759 5760 5762 5763 5764 5764 5766 5767 5768 5768 5768 5768 5767 5769 5771 5773 5773 5775 5774
5778 5784 5784 5782 5787 5788 5784 5787 5781 5780 5781 5786 5781 5776 5769 5765 5762 5760 5756 5752 5751 5751 5754 5755 5757 5757 5756 5757 5758 5759 5759 5761 5762 5764 5765 5766 5767 5768 5769 5769 5769 5769 5770 5771 5772 5773 5775 5777 5778
5785 5784 5788 5791 5794 5791 5793 5787 5786 5784 5789 5787 5782 5780 5773 5770 5768 5767 5764 5760 5756 5754 5755 5757 5758 5759 5758 5758 5759 5760 5762 5762 5764 5765 5765 5766 5768 5770 5771 5771 5772 5772 5772 5771 5772 5773 5776 5779 5782
5793 5785 5787 5787 5795 5792 5791 5795 5796 5793 5791 5781 5779 5776 5777 5775 5775 5770 5765 5762 5761 5760 5758 5758 5758 5759 5760 5760 5760 5761 5762 5763 5764 5766 5767 5769 5771 5771 5771 5773 5775 5774 5774 5774 5776 5779 5781 5784 5786
5793 5779 5781 5781 5782 5786 5797 5787 5790 5795 5791 5779 5773 5777 5777 5777 5777 5776 5775 5769 5767 5766 5764 5762 5762 5762 5762 5763 5763 5764 5763 5764 5766 5768 5770 5773 5774 5774 5774 5775 5775 5775 5776 5778 5781 5784 5785 5786 5789
5781 5778 5758 5780 5782 5787 5785 5770 5796 5796 5789 5779 5776 5779 5780 5779 5781 5782 5781 5778 5772 5769 5768 5769 5768 5766 5764 5765 5766 5766 5767 5767 5769 5772 5773 5775 5776 5776 5775 5775 5776 5778 5779 5781 5783 5785 5788 5790 5793
5770 5751 5754 5767 5780 5780 5778 5772 5791 5799 5793 5780 5778 5781 5783 5782 5781 5783 5786 5784 5781 5777 5774 5771 5773 5770 5769 5768 5768 5769 5771 5771 5773 5774 5775 5777 5778 5777 5777 5777 5778 5780 5780 5782 5785 5788 5789 5791 5794
5748 5751 5762 5762 5776 5771 5771 5774 5783 5793 5795 5788 5784 5784 5784 5784 5785 5789 5789 5789 5786 5784 5782 5779 5776 5777 5774 5772 5770 5771 5773 5775 5776 5778 5779 5780 5781 5780 5780 5780 5781 5783 5783 5784 5785 5787 5790 5793 5795
5764 5758 5752 5768 5789 5775 5775 5783 5783 5789 5788 5787 5789 5787 5787 5789 5795 5794 5795 5794 5790 5786 5784 5782 5780 5778 5777 5774 5772 5772 5773 5776 5779 5781 5783 5784 5784 5784 5783 5783 5784 5785 5785 5785 5786 5787 5790 5792 5795
5764 5757 5752 5765 5785 5777 5782 5782 5789 5792 5795 5796 5797 5795 5794 5791 5794 5794 5796 5796 5794 5790 5789 5785 5786 5784 5782 5782 5781 5781 5780 5780 5783 5785 5786 5786 5786 5785 5784 5784 5784 5786 5787 5787 5785 5786 5788 5790 5792
5746 5747 5751 5752 5767 5785 5785 5774 5783 5792 5796 5794 5798 5803 5801 5798 5797 5798 5797 5797 5798 5794 5791 5790 5789 5790 5788 5788 5786 5786 5784 5783 5783 5784 5786 5787 5788 5786 5786 5786 5786 5786 5786 5785 5786 5786 5787 5784 5789
5734 5757 5758 5753 5747 5732 5776 5732 5772 5785 5790 5795 5798 5802 5804 5803 5804 5804 5804 5800 5800 5800 5798 5796 5793 5792 5792 5791 5788 5788 5783 5779 5784 5787 5789 5790 5790 5789 5788 5788 5788 5788 5785 5785 5786 5787 5787 5786 5783
5731 5752 5750 5754 5743 5742 5753 5738 5764 5781 5778 5793 5806 5808 5812 5813 5811 5809 5810 5809 5807 5805 5801 5798 5795 5793 5794 5792 5792 5789 5786 5788 5789 5789 5788 5789 5790 5790 5789 5788 5788 5786 5785 5785 5783 5785 5785 5785 5784
5743 5742 5733 5729 5722 5709 5742 5738 5752 5764 5793 5803 5810 5818 5822 5821 5821 5817 5818 5816 5812 5808 5803 5801 5797 5794 5794 5794 5793 5792 5790 5789 5788 5788 5788 5788 5789 5789 5789 5787 5786 5786 5786 5785 5785 5784 5784 5784 5785
5716 5701 5679 5691 5697 5699 5734 5729 5752 5795 5804 5809 5811 5818 5825 5825 5819 5819 5814 5814 5813 5810 5806 5802 5799 5796 5796 5794 5794 5795 5794 5793 5791 5790 5790 5789 5789 5787 5787 5787 5785 5784 5785 5784 5784 5785 5784 5784 5782
5698 5692 5666 5673 5669 5692 5713 5719 5755 5799 5814 5821 5824 5830 5832 5828 5828 5825 5823 5820 5819 5816 5811 5806 5801 5798 5798 5797 5795 5796 5797 5795 5794 5793 5792 5791 5791 5791 5790 5787 5784 5783 5783 5782 5781 5781 5781 5781 5779
5694 5676 5691 5677 5675 5667 5693 5730 5765 5793 5802 5812 5817 5822 5827 5835 5835 5835 5832 5828 5824 5821 5816 5810 5805 5802 5800 5800 5798 5796 5797 5796 5795 5795 5795 5794 5793 5793 5791 5787 5783 5782 5780 5779 5779 5779 5779 5779 5778
5690 5690 5666 5651 5658 5660 5675 5702 5717 5760 5771 5787 5802 5812 5824 5836 5841 5838 5835 5831 5830 5827 5822 5814 5811 5807 5806 5802 5800 5799 5798 5797 5796 5795 5794 5795 5794 5791 5789 5787 5784 5782 5780 5779 5777 5777 5778 5777 5778
5656 5661 5658 5651 5642 5640 5637 5675 5728 5745 5749 5764 5787 5805 5819 5833 5842 5842 5841 5835 5831 5826 5819 5816 5810 5807 5804 5803 5801 5800 5799 5798 5796 5796 5795 5794 5794 5792 5789 5788 5786 5783 5781 5779 5777 5777 5777 5776 5776
5663 5658 5640 5626 5634 5633 5634 5666 5735 5731 5743 5756 5774 5791 5805 5832 5841 5838 5836 5828 5823 5821 5816 5814 5811 5807 5808 5806 5801 5800 5798 5798 5795 5795 5795 5794 5792 5792 5790 5788 5786 5785 5782 5781 5780 5778 5778 5775 5773